Year,Month,Day,Hour,Minute,Value (Times are PST for temperature in C)
2022,07,25,00,00,17.50
2022,07,25,00,01,17.50
2022,07,25,00,02,17.40
2022,07,25,00,03,17.40
2022,07,25,00,04,17.40
2022,07,25,00,05,17.40
2022,07,25,00,06,17.40
2022,07,25,00,07,17.40
2022,07,25,00,08,17.40
2022,07,25,00,09,17.40
2022,07,25,00,10,17.40
2022,07,25,00,11,17.40
2022,07,25,00,12,17.40
2022,07,25,00,13,17.40
2022,07,25,00,14,17.40
2022,07,25,00,15,17.40
2022,07,25,00,16,17.40
2022,07,25,00,17,17.30
2022,07,25,00,18,17.30
2022,07,25,00,19,17.30
2022,07,25,00,20,17.30
2022,07,25,00,21,17.30
2022,07,25,00,22,17.30
2022,07,25,00,23,17.30
2022,07,25,00,24,17.30
2022,07,25,00,25,17.20
2022,07,25,00,26,17.20
2022,07,25,00,27,17.20
2022,07,25,00,28,17.20
2022,07,25,00,29,17.20
2022,07,25,00,30,17.20
2022,07,25,00,31,17.20
2022,07,25,00,32,17.20
2022,07,25,00,33,17.20
2022,07,25,00,34,17.20
2022,07,25,00,35,17.20
2022,07,25,00,36,17.20
2022,07,25,00,37,17.20
2022,07,25,00,38,17.20
2022,07,25,00,39,17.20
2022,07,25,00,40,17.20
2022,07,25,00,41,17.10
2022,07,25,00,42,17.10
2022,07,25,00,43,17.10
2022,07,25,00,44,17.10
2022,07,25,00,45,17.10
2022,07,25,00,46,17.10
2022,07,25,00,47,17.10
2022,07,25,00,48,17.10
2022,07,25,00,49,17.10
2022,07,25,00,50,17.10
2022,07,25,00,51,17.00
2022,07,25,00,52,16.90
2022,07,25,00,53,16.90
2022,07,25,00,54,16.90
2022,07,25,00,55,16.90
2022,07,25,00,56,16.90
2022,07,25,00,57,16.90
2022,07,25,00,58,16.90
2022,07,25,00,59,16.90
2022,07,25,01,00,16.90
2022,07,25,01,01,16.90
2022,07,25,01,02,16.90
2022,07,25,01,03,16.90
2022,07,25,01,04,16.90
2022,07,25,01,05,16.80
2022,07,25,01,06,16.80
2022,07,25,01,07,16.80
2022,07,25,01,08,16.80
2022,07,25,01,09,16.80
2022,07,25,01,10,16.80
2022,07,25,01,11,16.80
2022,07,25,01,12,16.80
2022,07,25,01,13,16.80
2022,07,25,01,14,16.80
2022,07,25,01,15,16.70
2022,07,25,01,16,16.70
2022,07,25,01,17,16.70
2022,07,25,01,18,16.70
2022,07,25,01,19,16.70
2022,07,25,01,20,16.70
2022,07,25,01,21,16.70
2022,07,25,01,22,16.70
2022,07,25,01,23,16.60
2022,07,25,01,24,16.60
2022,07,25,01,25,16.60
2022,07,25,01,26,16.60
2022,07,25,01,27,16.60
2022,07,25,01,28,16.60
2022,07,25,01,29,16.60
2022,07,25,01,30,16.60
2022,07,25,01,31,16.60
2022,07,25,01,32,16.60
2022,07,25,01,33,16.60
2022,07,25,01,34,16.60
2022,07,25,01,35,16.50
2022,07,25,01,36,16.60
2022,07,25,01,37,16.60
2022,07,25,01,38,16.60
2022,07,25,01,39,16.50
2022,07,25,01,40,16.50
2022,07,25,01,41,16.50
2022,07,25,01,42,16.50
2022,07,25,01,43,16.50
2022,07,25,01,44,16.50
2022,07,25,01,45,16.40
2022,07,25,01,46,16.40
2022,07,25,01,47,16.40
2022,07,25,01,48,16.40
2022,07,25,01,49,16.40
2022,07,25,01,50,16.40
2022,07,25,01,51,16.40
2022,07,25,01,52,16.40
2022,07,25,01,53,16.40
2022,07,25,01,54,16.30
2022,07,25,01,55,16.40
2022,07,25,01,56,16.30
2022,07,25,01,57,16.30
2022,07,25,01,58,16.30
2022,07,25,01,59,16.30
2022,07,25,02,00,16.30
2022,07,25,02,01,16.30
2022,07,25,02,02,16.30
2022,07,25,02,03,16.30
2022,07,25,02,04,16.30
2022,07,25,02,05,16.30
2022,07,25,02,06,16.30
2022,07,25,02,07,16.30
2022,07,25,02,08,16.30
2022,07,25,02,09,16.30
2022,07,25,02,10,16.30
2022,07,25,02,11,16.30
2022,07,25,02,12,16.20
2022,07,25,02,13,16.20
2022,07,25,02,14,16.20
2022,07,25,02,15,16.20
2022,07,25,02,16,16.20
2022,07,25,02,17,16.20
2022,07,25,02,18,16.20
2022,07,25,02,19,16.20
2022,07,25,02,20,16.20
2022,07,25,02,21,16.20
2022,07,25,02,22,16.20
2022,07,25,02,23,16.20
2022,07,25,02,24,16.20
2022,07,25,02,25,16.20
2022,07,25,02,26,16.20
2022,07,25,02,27,16.20
2022,07,25,02,28,16.20
2022,07,25,02,29,16.20
2022,07,25,02,30,16.20
2022,07,25,02,31,16.10
2022,07,25,02,32,16.10
2022,07,25,02,33,16.10
2022,07,25,02,34,16.10
2022,07,25,02,35,16.10
2022,07,25,02,36,16.10
2022,07,25,02,37,16.10
2022,07,25,02,38,16.10
2022,07,25,02,39,16.10
2022,07,25,02,40,16.10
2022,07,25,02,41,16.10
2022,07,25,02,42,16.10
2022,07,25,02,43,16.10
2022,07,25,02,44,16.00
2022,07,25,02,45,16.00
2022,07,25,02,46,16.00
2022,07,25,02,47,16.00
2022,07,25,02,48,16.00
2022,07,25,02,49,15.90
2022,07,25,02,50,15.90
2022,07,25,02,51,15.90
2022,07,25,02,52,15.90
2022,07,25,02,53,15.90
2022,07,25,02,54,15.90
2022,07,25,02,55,15.90
2022,07,25,02,56,15.80
2022,07,25,02,57,15.80
2022,07,25,02,58,15.80
2022,07,25,02,59,15.80
2022,07,25,03,00,15.80
2022,07,25,03,01,15.80
2022,07,25,03,02,15.80
2022,07,25,03,03,15.80
2022,07,25,03,04,15.80
2022,07,25,03,05,15.80
2022,07,25,03,06,15.70
2022,07,25,03,07,15.70
2022,07,25,03,08,15.70
2022,07,25,03,09,15.70
2022,07,25,03,10,15.70
2022,07,25,03,11,15.70
2022,07,25,03,12,15.60
2022,07,25,03,13,15.60
2022,07,25,03,14,15.60
2022,07,25,03,15,15.60
2022,07,25,03,16,15.60
2022,07,25,03,17,15.60
2022,07,25,03,18,15.60
2022,07,25,03,19,15.60
2022,07,25,03,20,15.60
2022,07,25,03,21,15.50
2022,07,25,03,22,15.50
2022,07,25,03,23,15.50
2022,07,25,03,24,15.50
2022,07,25,03,25,15.50
2022,07,25,03,26,15.50
2022,07,25,03,27,15.50
2022,07,25,03,28,15.50
2022,07,25,03,29,15.40
2022,07,25,03,30,15.40
2022,07,25,03,31,15.40
2022,07,25,03,32,15.40
2022,07,25,03,33,15.50
2022,07,25,03,34,15.40
2022,07,25,03,35,15.40
2022,07,25,03,36,15.40
2022,07,25,03,37,15.40
2022,07,25,03,38,15.40
2022,07,25,03,39,15.40
2022,07,25,03,40,15.40
2022,07,25,03,41,15.40
2022,07,25,03,42,15.40
2022,07,25,03,43,15.40
2022,07,25,03,44,15.40
2022,07,25,03,45,15.40
2022,07,25,03,46,15.40
2022,07,25,03,47,15.40
2022,07,25,03,48,15.50
2022,07,25,03,49,15.50
2022,07,25,03,50,15.50
2022,07,25,03,51,15.50
2022,07,25,03,52,15.50
2022,07,25,03,53,15.50
2022,07,25,03,54,15.50
2022,07,25,03,55,15.50
2022,07,25,03,56,15.50
2022,07,25,03,57,15.50
2022,07,25,03,58,15.50
2022,07,25,03,59,15.50
2022,07,25,04,00,15.50
2022,07,25,04,01,15.50
2022,07,25,04,02,15.50
2022,07,25,04,03,15.50
2022,07,25,04,04,15.50
2022,07,25,04,05,15.50
2022,07,25,04,06,15.50
2022,07,25,04,07,15.50
2022,07,25,04,08,15.50
2022,07,25,04,09,15.40
2022,07,25,04,10,15.40
2022,07,25,04,11,15.40
2022,07,25,04,12,15.40
2022,07,25,04,13,15.40
2022,07,25,04,14,15.40
2022,07,25,04,15,15.40
2022,07,25,04,16,15.40
2022,07,25,04,17,15.40
2022,07,25,04,18,15.40
2022,07,25,04,19,15.40
2022,07,25,04,20,15.40
2022,07,25,04,21,15.40
2022,07,25,04,22,15.40
2022,07,25,04,23,15.40
2022,07,25,04,24,15.40
2022,07,25,04,25,15.40
2022,07,25,04,26,15.30
2022,07,25,04,27,15.30
2022,07,25,04,28,15.30
2022,07,25,04,29,15.30
2022,07,25,04,30,15.30
2022,07,25,04,31,15.20
2022,07,25,04,32,15.20
2022,07,25,04,33,15.20
2022,07,25,04,34,15.20
2022,07,25,04,35,15.20
2022,07,25,04,36,15.20
2022,07,25,04,37,15.20
2022,07,25,04,38,15.20
2022,07,25,04,39,15.10
2022,07,25,04,40,15.10
2022,07,25,04,41,15.10
2022,07,25,04,42,15.10
2022,07,25,04,43,15.10
2022,07,25,04,44,15.10
2022,07,25,04,45,15.10
2022,07,25,04,46,15.10
2022,07,25,04,47,15.10
2022,07,25,04,48,15.10
2022,07,25,04,49,15.00
2022,07,25,04,50,15.00
2022,07,25,04,51,15.00
2022,07,25,04,52,15.00
2022,07,25,04,53,15.00
2022,07,25,04,54,14.90
2022,07,25,04,55,14.90
2022,07,25,04,56,14.90
2022,07,25,04,57,14.90
2022,07,25,04,58,14.90
2022,07,25,04,59,14.90
2022,07,25,05,00,14.90
2022,07,25,05,01,14.80
2022,07,25,05,02,14.80
2022,07,25,05,03,14.80
2022,07,25,05,04,14.80
2022,07,25,05,05,14.80
2022,07,25,05,06,14.80
2022,07,25,05,07,14.80
2022,07,25,05,08,14.70
2022,07,25,05,09,14.70
2022,07,25,05,10,14.70
2022,07,25,05,11,14.70
2022,07,25,05,12,14.70
2022,07,25,05,13,14.70
2022,07,25,05,14,14.60
2022,07,25,05,15,14.60
2022,07,25,05,16,14.60
2022,07,25,05,17,14.60
2022,07,25,05,18,14.60
2022,07,25,05,19,14.60
2022,07,25,05,20,14.60
2022,07,25,05,21,14.60
2022,07,25,05,22,14.60
2022,07,25,05,23,14.60
2022,07,25,05,24,14.60
2022,07,25,05,25,14.60
2022,07,25,05,26,14.60
2022,07,25,05,27,14.60
2022,07,25,05,28,14.60
2022,07,25,05,29,14.60
2022,07,25,05,30,14.60
2022,07,25,05,31,14.60
2022,07,25,05,32,14.60
2022,07,25,05,33,14.70
2022,07,25,05,34,14.70
2022,07,25,05,35,14.70
2022,07,25,05,36,14.70
2022,07,25,05,37,14.70
2022,07,25,05,38,14.70
2022,07,25,05,39,14.70
2022,07,25,05,40,14.70
2022,07,25,05,41,14.70
2022,07,25,05,42,14.70
2022,07,25,05,43,14.70
2022,07,25,05,44,14.70
2022,07,25,05,45,14.70
2022,07,25,05,46,14.60
2022,07,25,05,47,14.60
2022,07,25,05,48,14.60
2022,07,25,05,49,14.60
2022,07,25,05,50,14.60
2022,07,25,05,51,14.60
2022,07,25,05,52,14.60
2022,07,25,05,53,14.60
2022,07,25,05,54,14.60
2022,07,25,05,55,14.70
2022,07,25,05,56,14.70
2022,07,25,05,57,14.70
2022,07,25,05,58,14.70
2022,07,25,05,59,14.70
2022,07,25,06,00,14.70
2022,07,25,06,01,14.70
2022,07,25,06,02,14.70
2022,07,25,06,03,14.70
2022,07,25,06,04,14.70
2022,07,25,06,05,14.70
2022,07,25,06,06,14.70
2022,07,25,06,07,14.70
2022,07,25,06,08,14.70
2022,07,25,06,09,14.60
2022,07,25,06,10,14.60
2022,07,25,06,11,14.60
2022,07,25,06,12,14.60
2022,07,25,06,13,14.60
2022,07,25,06,14,14.60
2022,07,25,06,15,14.60
2022,07,25,06,16,14.60
2022,07,25,06,17,14.60
2022,07,25,06,18,14.60
2022,07,25,06,19,14.70
2022,07,25,06,20,14.60
2022,07,25,06,21,14.60
2022,07,25,06,22,14.60
2022,07,25,06,23,14.60
2022,07,25,06,24,14.60
2022,07,25,06,25,14.70
2022,07,25,06,26,14.70
2022,07,25,06,27,14.70
2022,07,25,06,28,14.70
2022,07,25,06,29,14.70
2022,07,25,06,30,14.70
2022,07,25,06,31,14.70
2022,07,25,06,32,14.70
2022,07,25,06,33,14.80
2022,07,25,06,34,14.80
2022,07,25,06,35,14.80
2022,07,25,06,36,14.80
2022,07,25,06,37,14.80
2022,07,25,06,38,14.80
2022,07,25,06,39,14.80
2022,07,25,06,40,14.80
2022,07,25,06,41,14.90
2022,07,25,06,42,14.90
2022,07,25,06,43,14.90
2022,07,25,06,44,14.90
2022,07,25,06,45,14.90
2022,07,25,06,46,14.90
2022,07,25,06,47,14.90
2022,07,25,06,48,14.90
2022,07,25,06,49,14.90
2022,07,25,06,50,14.90
2022,07,25,06,51,14.90
2022,07,25,06,52,14.90
2022,07,25,06,53,14.90
2022,07,25,06,54,14.90
2022,07,25,06,55,14.90
2022,07,25,06,56,15.00
2022,07,25,06,57,15.00
2022,07,25,06,58,15.10
2022,07,25,06,59,15.10
2022,07,25,07,00,15.10
2022,07,25,07,01,15.20
2022,07,25,07,02,15.20
2022,07,25,07,03,15.20
2022,07,25,07,04,15.20
2022,07,25,07,05,15.30
2022,07,25,07,06,15.30
2022,07,25,07,07,15.30
2022,07,25,07,08,15.30
2022,07,25,07,09,15.30
2022,07,25,07,10,15.30
2022,07,25,07,11,15.30
2022,07,25,07,12,15.30
2022,07,25,07,13,15.30
2022,07,25,07,14,15.40
2022,07,25,07,15,15.40
2022,07,25,07,16,15.50
2022,07,25,07,17,15.50
2022,07,25,07,18,15.50
2022,07,25,07,19,15.60
2022,07,25,07,20,15.60
2022,07,25,07,21,15.60
2022,07,25,07,22,15.70
2022,07,25,07,23,15.70
2022,07,25,07,24,15.70
2022,07,25,07,25,15.80
2022,07,25,07,26,15.80
2022,07,25,07,27,15.90
2022,07,25,07,28,15.90
2022,07,25,07,29,16.00
2022,07,25,07,30,16.10
2022,07,25,07,31,16.10
2022,07,25,07,32,16.10
2022,07,25,07,33,16.20
2022,07,25,07,34,16.20
2022,07,25,07,35,16.30
2022,07,25,07,36,16.30
2022,07,25,07,37,16.30
2022,07,25,07,38,16.30
2022,07,25,07,39,16.40
2022,07,25,07,40,16.30
2022,07,25,07,41,16.40
2022,07,25,07,42,16.40
2022,07,25,07,43,16.40
2022,07,25,07,44,16.40
2022,07,25,07,45,16.40
2022,07,25,07,46,16.50
2022,07,25,07,47,16.60
2022,07,25,07,48,16.60
2022,07,25,07,49,16.70
2022,07,25,07,50,16.80
2022,07,25,07,51,16.90
2022,07,25,07,52,17.00
2022,07,25,07,53,17.10
2022,07,25,07,54,17.20
2022,07,25,07,55,17.30
2022,07,25,07,56,17.30
2022,07,25,07,57,17.40
2022,07,25,07,58,17.50
2022,07,25,07,59,17.50
2022,07,25,08,00,17.60
2022,07,25,08,01,17.60
2022,07,25,08,02,17.70
2022,07,25,08,03,17.70
2022,07,25,08,04,17.80
2022,07,25,08,05,17.80
2022,07,25,08,06,17.90
2022,07,25,08,07,17.90
2022,07,25,08,08,17.90
2022,07,25,08,09,18.00
2022,07,25,08,10,18.10
2022,07,25,08,11,18.10
2022,07,25,08,12,18.20
2022,07,25,08,13,18.20
2022,07,25,08,14,18.20
2022,07,25,08,15,18.30
2022,07,25,08,16,18.30
2022,07,25,08,17,18.50
2022,07,25,08,18,18.60
2022,07,25,08,19,18.70
2022,07,25,08,20,18.80
2022,07,25,08,21,19.00
2022,07,25,08,22,19.20
2022,07,25,08,23,19.40
2022,07,25,08,24,19.60
2022,07,25,08,25,19.70
2022,07,25,08,26,19.90
2022,07,25,08,27,20.00
2022,07,25,08,28,20.10
2022,07,25,08,29,20.20
2022,07,25,08,30,20.30
2022,07,25,08,31,20.30
2022,07,25,08,32,20.30
2022,07,25,08,33,20.30
2022,07,25,08,34,20.30
2022,07,25,08,35,20.40
2022,07,25,08,36,20.40
2022,07,25,08,37,20.40
2022,07,25,08,38,20.50
2022,07,25,08,39,20.70
2022,07,25,08,40,20.70
2022,07,25,08,41,20.90
2022,07,25,08,42,20.90
2022,07,25,08,43,21.00
2022,07,25,08,44,21.00
2022,07,25,08,45,21.20
2022,07,25,08,46,21.30
2022,07,25,08,47,21.30
2022,07,25,08,48,21.30
2022,07,25,08,49,21.30
2022,07,25,08,50,21.30
2022,07,25,08,51,21.30
2022,07,25,08,52,21.30
2022,07,25,08,53,21.40
2022,07,25,08,54,21.40
2022,07,25,08,55,21.50
2022,07,25,08,56,21.60
2022,07,25,08,57,21.60
2022,07,25,08,58,21.70
2022,07,25,08,59,21.80
2022,07,25,09,00,22.00
2022,07,25,09,01,22.20
2022,07,25,09,02,22.30
2022,07,25,09,03,22.40
2022,07,25,09,04,22.40
2022,07,25,09,05,22.50
2022,07,25,09,06,22.50
2022,07,25,09,07,22.60
2022,07,25,09,08,22.60
2022,07,25,09,09,22.70
2022,07,25,09,10,22.80
2022,07,25,09,11,22.80
2022,07,25,09,12,22.90
2022,07,25,09,13,23.00
2022,07,25,09,14,23.10
2022,07,25,09,15,23.20
2022,07,25,09,16,23.30
2022,07,25,09,17,23.30
2022,07,25,09,18,23.30
2022,07,25,09,19,23.30
2022,07,25,09,20,23.20
2022,07,25,09,21,23.30
2022,07,25,09,22,23.30
2022,07,25,09,23,23.30
2022,07,25,09,24,23.30
2022,07,25,09,25,23.30
2022,07,25,09,26,23.20
2022,07,25,09,27,23.30
2022,07,25,09,28,23.30
2022,07,25,09,29,23.30
2022,07,25,09,30,23.40
2022,07,25,09,31,23.50
2022,07,25,09,32,23.60
2022,07,25,09,33,23.60
2022,07,25,09,34,23.70
2022,07,25,09,35,23.80
2022,07,25,09,36,23.80
2022,07,25,09,37,23.80
2022,07,25,09,38,23.80
2022,07,25,09,39,23.80
2022,07,25,09,40,23.90
2022,07,25,09,41,23.90
2022,07,25,09,42,23.90
2022,07,25,09,43,23.80
2022,07,25,09,44,23.80
2022,07,25,09,45,23.80
2022,07,25,09,46,23.80
2022,07,25,09,47,23.90
2022,07,25,09,48,23.90
2022,07,25,09,49,24.00
2022,07,25,09,50,24.10
2022,07,25,09,51,24.20
2022,07,25,09,52,24.30
2022,07,25,09,53,24.30
2022,07,25,09,54,24.40
2022,07,25,09,55,24.50
2022,07,25,09,56,24.60
2022,07,25,09,57,24.60
2022,07,25,09,58,24.60
2022,07,25,09,59,24.50
2022,07,25,10,00,24.60
2022,07,25,10,01,24.60
2022,07,25,10,02,24.60
2022,07,25,10,03,24.50
2022,07,25,10,04,24.50
2022,07,25,10,05,24.40
2022,07,25,10,06,24.50
2022,07,25,10,07,24.50
2022,07,25,10,08,24.60
2022,07,25,10,09,24.60
2022,07,25,10,10,24.60
2022,07,25,10,11,24.60
2022,07,25,10,12,24.60
2022,07,25,10,13,24.70
2022,07,25,10,14,24.70
2022,07,25,10,15,24.70
2022,07,25,10,16,24.80
2022,07,25,10,17,24.90
2022,07,25,10,18,24.90
2022,07,25,10,19,25.00
2022,07,25,10,20,25.10
2022,07,25,10,21,25.30
2022,07,25,10,22,25.40
2022,07,25,10,23,25.50
2022,07,25,10,24,25.50
2022,07,25,10,25,25.60
2022,07,25,10,26,25.50
2022,07,25,10,27,25.50
2022,07,25,10,28,25.40
2022,07,25,10,29,25.40
2022,07,25,10,30,25.40
2022,07,25,10,31,25.40
2022,07,25,10,32,25.40
2022,07,25,10,33,25.40
2022,07,25,10,34,25.50
2022,07,25,10,35,25.60
2022,07,25,10,36,25.70
2022,07,25,10,37,25.90
2022,07,25,10,38,26.00
2022,07,25,10,39,26.10
2022,07,25,10,40,26.10
2022,07,25,10,41,26.20
2022,07,25,10,42,26.20
2022,07,25,10,43,26.20
2022,07,25,10,44,26.30
2022,07,25,10,45,26.30
2022,07,25,10,46,26.30
2022,07,25,10,47,26.30
2022,07,25,10,48,26.30
2022,07,25,10,49,26.40
2022,07,25,10,50,26.30
2022,07,25,10,51,26.30
2022,07,25,10,52,26.30
2022,07,25,10,53,26.30
2022,07,25,10,54,26.30
2022,07,25,10,55,26.30
2022,07,25,10,56,26.40
2022,07,25,10,57,26.40
2022,07,25,10,58,26.50
2022,07,25,10,59,26.60
2022,07,25,11,00,26.70
2022,07,25,11,01,26.70
2022,07,25,11,02,26.70
2022,07,25,11,03,26.60
2022,07,25,11,04,26.60
2022,07,25,11,05,26.50
2022,07,25,11,06,26.50
2022,07,25,11,07,26.50
2022,07,25,11,08,26.50
2022,07,25,11,09,26.50
2022,07,25,11,10,26.60
2022,07,25,11,11,26.70
2022,07,25,11,12,26.70
2022,07,25,11,13,26.80
2022,07,25,11,14,26.80
2022,07,25,11,15,26.90
2022,07,25,11,16,26.90
2022,07,25,11,17,27.00
2022,07,25,11,18,27.00
2022,07,25,11,19,27.00
2022,07,25,11,20,27.10
2022,07,25,11,21,27.10
2022,07,25,11,22,27.10
2022,07,25,11,23,27.10
2022,07,25,11,24,27.10
2022,07,25,11,25,27.20
2022,07,25,11,26,27.20
2022,07,25,11,27,27.20
2022,07,25,11,28,27.30
2022,07,25,11,29,27.30
2022,07,25,11,30,27.20
2022,07,25,11,31,27.20
2022,07,25,11,32,27.20
2022,07,25,11,33,27.20
2022,07,25,11,34,27.20
2022,07,25,11,35,27.30
2022,07,25,11,36,27.40
2022,07,25,11,37,27.50
2022,07,25,11,38,27.60
2022,07,25,11,39,27.80
2022,07,25,11,40,27.90
2022,07,25,11,41,27.90
2022,07,25,11,42,28.00
2022,07,25,11,43,28.10
2022,07,25,11,44,28.20
2022,07,25,11,45,28.10
2022,07,25,11,46,28.10
2022,07,25,11,47,28.10
2022,07,25,11,48,28.10
2022,07,25,11,49,28.20
2022,07,25,11,50,28.30
2022,07,25,11,51,28.20
2022,07,25,11,52,28.20
2022,07,25,11,53,28.10
2022,07,25,11,54,28.20
2022,07,25,11,55,28.20
2022,07,25,11,56,28.40
2022,07,25,11,57,28.50
2022,07,25,11,58,28.50
2022,07,25,11,59,28.70
2022,07,25,12,00,28.60
2022,07,25,12,01,28.60
2022,07,25,12,02,28.50
2022,07,25,12,03,28.40
2022,07,25,12,04,28.30
2022,07,25,12,05,28.10
2022,07,25,12,06,28.10
2022,07,25,12,07,28.00
2022,07,25,12,08,28.00
2022,07,25,12,09,28.00
2022,07,25,12,10,27.90
2022,07,25,12,11,27.90
2022,07,25,12,12,27.90
2022,07,25,12,13,27.90
2022,07,25,12,14,27.90
2022,07,25,12,15,27.90
2022,07,25,12,16,27.90
2022,07,25,12,17,28.00
2022,07,25,12,18,28.10
2022,07,25,12,19,28.20
2022,07,25,12,20,28.20
2022,07,25,12,21,28.30
2022,07,25,12,22,28.40
2022,07,25,12,23,28.40
2022,07,25,12,24,28.50
2022,07,25,12,25,28.40
2022,07,25,12,26,28.40
2022,07,25,12,27,28.40
2022,07,25,12,28,28.50
2022,07,25,12,29,28.60
2022,07,25,12,30,28.60
2022,07,25,12,31,28.60
2022,07,25,12,32,28.60
2022,07,25,12,33,28.70
2022,07,25,12,34,28.80
2022,07,25,12,35,28.90
2022,07,25,12,36,28.80
2022,07,25,12,37,28.80
2022,07,25,12,38,28.70
2022,07,25,12,39,28.60
2022,07,25,12,40,28.70
2022,07,25,12,41,28.70
2022,07,25,12,42,28.70
2022,07,25,12,43,28.70
2022,07,25,12,44,28.70
2022,07,25,12,45,28.70
2022,07,25,12,46,28.80
2022,07,25,12,47,28.80
2022,07,25,12,48,28.80
2022,07,25,12,49,28.90
2022,07,25,12,50,28.90
2022,07,25,12,51,28.90
2022,07,25,12,52,28.90
2022,07,25,12,53,28.90
2022,07,25,12,54,29.00
2022,07,25,12,55,29.10
2022,07,25,12,56,29.30
2022,07,25,12,57,29.50
2022,07,25,12,58,29.60
2022,07,25,12,59,29.60
2022,07,25,13,00,29.60
2022,07,25,13,01,29.70
2022,07,25,13,02,29.60
2022,07,25,13,03,29.50
2022,07,25,13,04,29.50
2022,07,25,13,05,29.50
2022,07,25,13,06,29.40
2022,07,25,13,07,29.40
2022,07,25,13,08,29.50
2022,07,25,13,09,29.60
2022,07,25,13,10,29.70
2022,07,25,13,11,29.80
2022,07,25,13,12,29.80
2022,07,25,13,13,29.80
2022,07,25,13,14,29.80
2022,07,25,13,15,29.90
2022,07,25,13,16,30.00
2022,07,25,13,17,30.10
2022,07,25,13,18,30.10
2022,07,25,13,19,30.20
2022,07,25,13,20,30.00
2022,07,25,13,21,30.00
2022,07,25,13,22,29.90
2022,07,25,13,23,29.90
2022,07,25,13,24,29.90
2022,07,25,13,25,30.00
2022,07,25,13,26,30.10
2022,07,25,13,27,30.20
2022,07,25,13,28,30.20
2022,07,25,13,29,30.30
2022,07,25,13,30,30.20
2022,07,25,13,31,30.10
2022,07,25,13,32,30.00
2022,07,25,13,33,30.00
2022,07,25,13,34,29.80
2022,07,25,13,35,29.80
2022,07,25,13,36,29.90
2022,07,25,13,37,29.80
2022,07,25,13,38,29.90
2022,07,25,13,39,29.90
2022,07,25,13,40,29.80
2022,07,25,13,41,29.80
2022,07,25,13,42,29.70
2022,07,25,13,43,29.70
2022,07,25,13,44,29.70
2022,07,25,13,45,29.70
2022,07,25,13,46,29.70
2022,07,25,13,47,29.80
2022,07,25,13,48,29.80
2022,07,25,13,49,30.00
2022,07,25,13,50,30.00
2022,07,25,13,51,30.10
2022,07,25,13,52,30.20
2022,07,25,13,53,30.20
2022,07,25,13,54,30.20
2022,07,25,13,55,30.00
2022,07,25,13,56,29.90
2022,07,25,13,57,29.80
2022,07,25,13,58,29.80
2022,07,25,13,59,29.80
2022,07,25,14,00,29.70
2022,07,25,14,01,29.70
2022,07,25,14,02,29.80
2022,07,25,14,03,29.80
2022,07,25,14,04,29.80
2022,07,25,14,05,29.90
2022,07,25,14,06,29.90
2022,07,25,14,07,30.00
2022,07,25,14,08,30.00
2022,07,25,14,09,30.10
2022,07,25,14,10,30.10
2022,07,25,14,11,30.00
2022,07,25,14,12,30.10
2022,07,25,14,13,30.10
2022,07,25,14,14,30.00
2022,07,25,14,15,29.80
2022,07,25,14,16,29.80
2022,07,25,14,17,29.90
2022,07,25,14,18,29.90
2022,07,25,14,19,30.00
2022,07,25,14,20,30.10
2022,07,25,14,21,30.10
2022,07,25,14,22,30.10
2022,07,25,14,23,30.10
2022,07,25,14,24,30.10
2022,07,25,14,25,30.10
2022,07,25,14,26,30.20
2022,07,25,14,27,30.10
2022,07,25,14,28,30.10
2022,07,25,14,29,30.10
2022,07,25,14,30,30.10
2022,07,25,14,31,30.10
2022,07,25,14,32,30.20
2022,07,25,14,33,30.30
2022,07,25,14,34,30.50
2022,07,25,14,35,30.60
2022,07,25,14,36,30.60
2022,07,25,14,37,30.70
2022,07,25,14,38,30.70
2022,07,25,14,39,30.80
2022,07,25,14,40,30.80
2022,07,25,14,41,31.00
2022,07,25,14,42,31.00
2022,07,25,14,43,31.00
2022,07,25,14,44,31.10
2022,07,25,14,45,31.10
2022,07,25,14,46,31.10
2022,07,25,14,47,31.10
2022,07,25,14,48,31.20
2022,07,25,14,49,31.30
2022,07,25,14,50,31.50
2022,07,25,14,51,31.50
2022,07,25,14,52,31.50
2022,07,25,14,53,31.30
2022,07,25,14,54,31.20
2022,07,25,14,55,31.20
2022,07,25,14,56,31.20
2022,07,25,14,57,31.00
2022,07,25,14,58,31.00
2022,07,25,14,59,31.00
2022,07,25,15,00,31.00
2022,07,25,15,01,31.10
2022,07,25,15,02,31.20
2022,07,25,15,03,31.20
2022,07,25,15,04,31.20
2022,07,25,15,05,31.20
2022,07,25,15,06,31.10
2022,07,25,15,07,31.00
2022,07,25,15,08,30.90
2022,07,25,15,09,30.90
2022,07,25,15,10,31.00
2022,07,25,15,11,31.10
2022,07,25,15,12,31.20
2022,07,25,15,13,31.30
2022,07,25,15,14,31.50
2022,07,25,15,15,31.50
2022,07,25,15,16,31.60
2022,07,25,15,17,31.60
2022,07,25,15,18,31.70
2022,07,25,15,19,31.70
2022,07,25,15,20,31.80
2022,07,25,15,21,31.90
2022,07,25,15,22,32.00
2022,07,25,15,23,32.20
2022,07,25,15,24,32.30
2022,07,25,15,25,32.30
2022,07,25,15,26,32.40
2022,07,25,15,27,32.50
2022,07,25,15,28,32.50
2022,07,25,15,29,32.60
2022,07,25,15,30,32.70
2022,07,25,15,31,32.70
2022,07,25,15,32,32.80
2022,07,25,15,33,32.90
2022,07,25,15,34,33.00
2022,07,25,15,35,32.80
2022,07,25,15,36,32.60
2022,07,25,15,37,32.30
2022,07,25,15,38,32.20
2022,07,25,15,39,32.00
2022,07,25,15,40,32.00
2022,07,25,15,41,32.00
2022,07,25,15,42,32.10
2022,07,25,15,43,32.10
2022,07,25,15,44,32.20
2022,07,25,15,45,32.30
2022,07,25,15,46,32.40
2022,07,25,15,47,32.40
2022,07,25,15,48,32.50
2022,07,25,15,49,32.50
2022,07,25,15,50,32.60
2022,07,25,15,51,32.60
2022,07,25,15,52,32.70
2022,07,25,15,53,32.70
2022,07,25,15,54,32.60
2022,07,25,15,55,32.60
2022,07,25,15,56,32.60
2022,07,25,15,57,32.60
2022,07,25,15,58,32.60
2022,07,25,15,59,32.60
2022,07,25,16,00,32.60
2022,07,25,16,01,32.60
2022,07,25,16,02,32.70
2022,07,25,16,03,33.00
2022,07,25,16,04,33.10
2022,07,25,16,05,33.20
2022,07,25,16,06,33.20
2022,07,25,16,07,33.20
2022,07,25,16,08,33.20
2022,07,25,16,09,33.10
2022,07,25,16,10,32.80
2022,07,25,16,11,32.60
2022,07,25,16,12,32.40
2022,07,25,16,13,32.30
2022,07,25,16,14,32.20
2022,07,25,16,15,32.10
2022,07,25,16,16,32.20
2022,07,25,16,17,32.20
2022,07,25,16,18,32.30
2022,07,25,16,19,32.30
2022,07,25,16,20,32.40
2022,07,25,16,21,32.40
2022,07,25,16,22,32.60
2022,07,25,16,23,32.70
2022,07,25,16,24,32.60
2022,07,25,16,25,32.60
2022,07,25,16,26,32.60
2022,07,25,16,27,32.50
2022,07,25,16,28,32.50
2022,07,25,16,29,32.40
2022,07,25,16,30,32.30
2022,07,25,16,31,32.30
2022,07,25,16,32,32.20
2022,07,25,16,33,32.10
2022,07,25,16,34,32.10
2022,07,25,16,35,32.20
2022,07,25,16,36,32.30
2022,07,25,16,37,32.40
2022,07,25,16,38,32.40
2022,07,25,16,39,32.50
2022,07,25,16,40,32.60
2022,07,25,16,41,32.70
2022,07,25,16,42,32.70
2022,07,25,16,43,32.70
2022,07,25,16,44,32.80
2022,07,25,16,45,32.80
2022,07,25,16,46,32.80
2022,07,25,16,47,32.80
2022,07,25,16,48,32.70
2022,07,25,16,49,32.70
2022,07,25,16,50,32.80
2022,07,25,16,51,32.80
2022,07,25,16,52,32.80
2022,07,25,16,53,32.90
2022,07,25,16,54,32.80
2022,07,25,16,55,32.70
2022,07,25,16,56,32.70
2022,07,25,16,57,32.70
2022,07,25,16,58,32.60
2022,07,25,16,59,32.60
2022,07,25,17,00,32.60
2022,07,25,17,01,32.60
2022,07,25,17,02,32.60
2022,07,25,17,03,32.60
2022,07,25,17,04,32.70
2022,07,25,17,05,32.80
2022,07,25,17,06,32.90
2022,07,25,17,07,32.90
2022,07,25,17,08,32.80
2022,07,25,17,09,32.80
2022,07,25,17,10,32.70
2022,07,25,17,11,32.70
2022,07,25,17,12,32.60
2022,07,25,17,13,32.60
2022,07,25,17,14,32.60
2022,07,25,17,15,32.50
2022,07,25,17,16,32.40
2022,07,25,17,17,32.40
2022,07,25,17,18,32.30
2022,07,25,17,19,32.30